| time (UTC) | temp F | wind direction | speed MPH | gust MPH | rain 1hr in | rain 24hr in | rain mn in | humidity % | barometer mb |
| 20260508204938 | 68 | 20 | 4.0 | 5.0 | 0.00 | 0.00 | 0.00 | 52 | 1014.1 |
| 20260508204436 | 68 | 18 | 3.0 | 6.0 | 0.00 | 0.00 | 0.00 | 53 | 1014.0 |
| 20260508203931 | 68 | 345 | 7.0 | 7.0 | 0.00 | 0.00 | 0.00 | 50 | 1014.4 |
| 20260508203428 | 68 | 339 | 5.0 | 7.0 | 0.00 | 0.00 | 0.00 | 50 | 1014.1 |
| 20260508202923 | 68 | 348 | 5.0 | 6.0 | 0.00 | 0.00 | 0.00 | 57 | 1014.1 |
| 20260508202421 | 68 | 341 | 5.0 | 6.0 | 0.00 | 0.00 | 0.00 | 50 | 1014.2 |
| 20260508201918 | 68 | 9 | 4.0 | 6.0 | 0.00 | 0.00 | 0.00 | 51 | 1014.2 |
| 20260508201414 | 68 | 338 | 6.0 | 6.0 | 0.00 | 0.00 | 0.00 | 47 | 1014.4 |
| 20260508200911 | 68 | 351 | 3.0 | 5.0 | 0.00 | 0.00 | 0.00 | 48 | 1014.6 |
| 20260508200409 | 68 | 356 | 5.0 | 7.0 | 0.00 | 0.00 | 0.00 | 49 | 1014.5 |
| 20260508195903 | 68 | 7 | 5.0 | 7.0 | 0.00 | 0.00 | 0.00 | 45 | 1014.5 |
| 20260508195401 | 68 | 321 | 3.0 | 7.0 | 0.00 | 0.00 | 0.00 | 47 | 1014.6 |
| 20260508194856 | 68 | 5 | 5.0 | 6.0 | 0.00 | 0.00 | 0.00 | 50 | 1014.5 |
| 20260508194354 | 68 | 293 | 3.0 | 6.0 | 0.00 | 0.00 | 0.00 | 48 | 1014.4 |
| 20260508193851 | 68 | 334 | 5.0 | 6.0 | 0.00 | 0.00 | 0.00 | 46 | 1014.6 |
| 20260508193347 | 68 | 51 | 7.0 | 7.0 | 0.00 | 0.00 | 0.00 | 45 | 1014.8 |
| 20260508192843 | 68 | 21 | 3.0 | 5.0 | 0.00 | 0.00 | 0.00 | 48 | 1014.9 |
| 20260508192341 | 68 | 305 | 6.0 | 6.0 | 0.00 | 0.00 | 0.00 | 46 | 1014.9 |
| 20260508191838 | 68 | 325 | 4.0 | 5.0 | 0.00 | 0.00 | 0.00 | 44 | 1015.1 |
| 20260508191335 | 68 | 222 | 0.0 | 5.0 | 0.00 | 0.00 | 0.00 | 45 | 1015.4 |
| 20260508190832 | 68 | 21 | 7.0 | 9.0 | 0.00 | 0.00 | 0.00 | 45 | 1015.5 |
| 20260508190329 | 68 | 23 | 3.0 | 7.0 | 0.00 | 0.00 | 0.00 | 47 | 1015.6 |
| 20260508185825 | 69 | 349 | 5.0 | 7.0 | 0.00 | 0.00 | 0.00 | 44 | 1015.4 |
| 20260508185323 | 68 | 335 | 7.0 | 9.0 | 0.00 | 0.00 | 0.00 | 47 | 1015.6 |
| 20260508184820 | 68 | 12 | 5.0 | 10.0 | 0.00 | 0.00 | 0.00 | 45 | 1015.5 |
| 20260508184317 | 68 | 69 | 5.0 | 6.0 | 0.00 | 0.00 | 0.00 | 44 | 1015.7 |
| 20260508183814 | 67 | 9 | 3.0 | 11.0 | 0.00 | 0.00 | 0.00 | 48 | 1015.7 |
| 20260508183310 | 68 | 28 | 6.0 | 9.0 | 0.00 | 0.00 | 0.00 | 45 | 1015.7 |
| 20260508182806 | 67 | 17 | 5.0 | 7.0 | 0.00 | 0.00 | 0.00 | 50 | 1015.8 |
| 20260508182306 | 67 | 334 | 6.0 | 9.0 | 0.00 | 0.00 | 0.00 | 47 | 1016.1 |
| 20260508181759 | 67 | 351 | 7.0 | 10.0 | 0.00 | 0.00 | 0.00 | 47 | 1015.9 |
| 20260508181256 | 67 | 1 | 4.0 | 13.0 | 0.00 | 0.00 | 0.00 | 44 | 1016.2 |
| 20260508180753 | 67 | 43 | 13.0 | 17.0 | 0.00 | 0.00 | 0.00 | 44 | 1015.9 |
| 20260508180249 | 67 | 37 | 6.0 | 11.0 | 0.00 | 0.00 | 0.00 | 41 | 1016.3 |
| 20260508175746 | 67 | 53 | 9.0 | 9.0 | 0.00 | 0.00 | 0.00 | 44 | 1016.4 |
| 20260508175242 | 68 | 22 | 3.0 | 10.0 | 0.00 | 0.00 | 0.00 | 41 | 1016.3 |
| 20260508174741 | 68 | 8 | 3.0 | 10.0 | 0.00 | 0.00 | 0.00 | 42 | 1016.2 |
| 20260508174238 | 67 | 51 | 7.0 | 7.0 | 0.00 | 0.00 | 0.00 | 48 | 1016.2 |
| 20260508173734 | 67 | 0 | 9.0 | 12.0 | 0.00 | 0.00 | 0.00 | 41 | 1016.6 |
| 20260508173230 | 67 | 285 | 3.0 | 8.0 | 0.00 | 0.00 | 0.00 | 40 | 1016.5 |
| 20260508172727 | 67 | 303 | 5.0 | 7.0 | 0.00 | 0.00 | 0.00 | 46 | 1016.4 |
| 20260508172224 | 67 | 331 | 3.0 | 8.0 | 0.00 | 0.00 | 0.00 | 40 | 1016.5 |
| 20260508171720 | 67 | 264 | 3.0 | 5.0 | 0.00 | 0.00 | 0.00 | 41 | 1016.6 |
| 20260508171216 | 66 | 322 | 5.0 | 6.0 | 0.00 | 0.00 | 0.00 | 42 | 1016.8 |
| 20260508170714 | 66 | 342 | 9.0 | 11.0 | 0.00 | 0.00 | 0.00 | 39 | 1016.9 |
| 20260508170211 | 66 | 4 | 3.0 | 12.0 | 0.00 | 0.00 | 0.00 | 40 | 1016.9 |
| 20260508165708 | 66 | 5 | 6.0 | 8.0 | 0.00 | 0.00 | 0.00 | 39 | 1017.2 |
| 20260508165205 | 66 | 358 | 4.0 | 7.0 | 0.00 | 0.00 | 0.00 | 39 | 1017.2 |
| 20260508164702 | 66 | 77 | 6.0 | 7.0 | 0.00 | 0.00 | 0.00 | 41 | 1017.0 |
| 20260508164158 | 65 | 353 | 3.0 | 7.0 | 0.00 | 0.00 | 0.00 | 40 | 1017.2 |
| 20260508163656 | 64 | 60 | 7.0 | 11.0 | 0.00 | 0.00 | 0.00 | 40 | 1017.4 |
| 20260508163153 | 64 | 27 | 4.0 | 9.0 | 0.00 | 0.00 | 0.00 | 44 | 1017.4 |
| 20260508162648 | 64 | 63 | 9.0 | 11.0 | 0.00 | 0.00 | 0.00 | 44 | 1017.5 |
| 20260508162146 | 64 | 53 | 8.0 | 9.0 | 0.00 | 0.00 | 0.00 | 43 | 1017.7 |
| 20260508161643 | 63 | 55 | 4.0 | 7.0 | 0.00 | 0.00 | 0.00 | 50 | 1017.8 |
| 20260508161141 | 63 | 328 | 3.0 | 7.0 | 0.00 | 0.00 | 0.00 | 65 | 1017.7 |
| 20260508160639 | 62 | 13 | 2.0 | 9.0 | 0.00 | 0.00 | 0.00 | 56 | 1017.7 |
| 20260508160136 | 62 | 57 | 7.0 | 9.0 | 0.00 | 0.00 | 0.00 | 60 | 1018.0 |
| 20260508155633 | 61 | 15 | 4.0 | 9.0 | 0.00 | 0.00 | 0.00 | 58 | 1018.1 |
| 20260508155130 | 61 | 19 | 5.0 | 9.0 | 0.00 | 0.00 | 0.00 | 59 | 1018.1 |
| 20260508154627 | 60 | 93 | 3.0 | 9.0 | 0.00 | 0.00 | 0.00 | 62 | 1018.1 |
| 20260508154123 | 60 | 20 | 4.0 | 7.0 | 0.00 | 0.00 | 0.00 | 63 | 1018.3 |
| 20260508153620 | 60 | 41 | 5.0 | 7.0 | 0.00 | 0.00 | 0.00 | 61 | 1018.2 |
| 20260508153117 | 59 | 356 | 4.0 | 7.0 | 0.00 | 0.00 | 0.00 | 64 | 1018.2 |
| 20260508152614 | 59 | 287 | 2.0 | 3.0 | 0.00 | 0.00 | 0.00 | 71 | 1018.2 |
| 20260508152109 | 58 | 351 | 2.0 | 5.0 | 0.00 | 0.00 | 0.00 | 68 | 1018.5 |
| 20260508151607 | 57 | 345 | 3.0 | 3.0 | 0.00 | 0.00 | 0.00 | 70 | 1018.6 |
| 20260508151103 | 57 | 16 | 3.0 | 5.0 | 0.00 | 0.00 | 0.00 | 71 | 1018.6 |
| 20260508150601 | 56 | 41 | 4.0 | 4.0 | 0.00 | 0.00 | 0.00 | 71 | 1018.7 |
| 20260508150056 | 55 | 5 | 5.0 | 6.0 | 0.00 | 0.00 | 0.00 | 75 | 1018.5 |
| 20260508145553 | 55 | 11 | 3.0 | 7.0 | 0.00 | 0.00 | 0.00 | 74 | 1018.6 |
| 20260508145049 | 54 | 337 | 4.0 | 7.0 | 0.00 | 0.00 | 0.00 | 75 | 1018.5 |
| 20260508144547 | 54 | 22 | 3.0 | 6.0 | 0.00 | 0.00 | 0.00 | 76 | 1018.7 |
| 20260508144044 | 53 | 329 | 5.0 | 6.0 | 0.00 | 0.00 | 0.00 | 81 | 1018.6 |
| 20260508143542 | 53 | 337 | 3.0 | 6.0 | 0.00 | 0.00 | 0.00 | 83 | 1018.7 |
| 20260508143038 | 52 | 330 | 5.0 | 6.0 | 0.00 | 0.00 | 0.00 | 84 | 1018.6 |
| 20260508142535 | 52 | 11 | 3.0 | 5.0 | 0.00 | 0.00 | 0.00 | 86 | 1018.7 |
| 20260508142032 | 51 | 333 | 5.0 | 5.0 | 0.00 | 0.00 | 0.00 | 88 | 1018.8 |
| 20260508141528 | 50 | 43 | 3.0 | 7.0 | 0.00 | 0.00 | 0.00 | 90 | 1018.9 |
| 20260508141026 | 50 | 353 | 3.0 | 5.0 | 0.00 | 0.00 | 0.00 | 93 | 1018.8 |
| 20260508140523 | 49 | 22 | 3.0 | 6.0 | 0.00 | 0.00 | 0.00 | 94 | 1018.9 |
| 20260508140019 | 49 | 15 | 5.0 | 6.0 | 0.00 | 0.00 | 0.00 | 95 | 1019.0 |
| 20260508135515 | 49 | 10 | 4.0 | 6.0 | 0.00 | 0.00 | 0.00 | 96 | 1019.2 |
| 20260508135012 | 48 | 3 | 5.0 | 7.0 | 0.00 | 0.00 | 0.00 | 96 | 1019.1 |
| 20260508134508 | 48 | 359 | 6.0 | 6.0 | 0.00 | 0.00 | 0.00 | 97 | 1019.4 |
| 20260508134005 | 48 | 15 | 4.0 | 5.0 | 0.00 | 0.00 | 0.00 | 97 | 1019.4 |
| 20260508133502 | 47 | 352 | 5.0 | 6.0 | 0.00 | 0.00 | 0.00 | 98 | 1019.1 |
| 20260508132959 | 47 | 346 | 0.0 | 5.0 | 0.00 | 0.00 | 0.00 | 98 | 1019.4 |
| 20260508132457 | 47 | 0 | 3.0 | 5.0 | 0.00 | 0.00 | 0.00 | 99 | 1019.5 |
| 20260508131954 | 46 | 25 | 3.0 | 5.0 | 0.00 | 0.00 | 0.00 | 99 | 1019.4 |
| 20260508131449 | 46 | 343 | 5.0 | 5.0 | 0.00 | 0.00 | 0.00 | 99 | 1019.5 |
| 20260508130946 | 46 | 355 | 3.0 | 5.0 | 0.00 | 0.00 | 0.00 | 99 | 1019.6 |
| 20260508130443 | 45 | 342 | 5.0 | 5.0 | 0.00 | 0.00 | 0.00 | 99 | 1019.5 |
| 20260508125938 | 45 | 27 | 4.0 | 5.0 | 0.00 | 0.00 | 0.00 | 99 | 1019.5 |
| 20260508125435 | 45 | 42 | 5.0 | 6.0 | 0.00 | 0.00 | 0.00 | 99 | 1019.4 |
| 20260508124933 | 45 | 0 | 2.0 | 4.0 | 0.00 | 0.00 | 0.00 | 99 | 1019.2 |
| 20260508124430 | 45 | 5 | 3.0 | 4.0 | 0.00 | 0.00 | 0.00 | 99 | 1019.2 |
| 20260508123928 | 45 | 356 | 4.0 | 5.0 | 0.00 | 0.00 | 0.00 | 99 | 1019.4 |
| 20260508123427 | 44 | 9 | 3.0 | 4.0 | 0.00 | 0.00 | 0.00 | 99 | 1019.5 |
| 20260508122922 | 44 | 339 | 3.0 | 4.0 | 0.00 | 0.00 | 0.00 | 99 | 1019.5 |
| 20260508122420 | 44 | 135 | 0.0 | 0.0 | 0.00 | 0.00 | 0.00 | 99 | 1019.4 |
| 20260508121917 | 44 | 337 | 3.0 | 4.0 | 0.00 | 0.00 | 0.00 | 99 | 1019.2 |
| 20260508121415 | 44 | 345 | 3.0 | 3.0 | 0.00 | 0.00 | 0.00 | 99 | 1019.0 |
| 20260508120912 | 44 | 16 | 4.0 | 4.0 | 0.00 | 0.00 | 0.00 | 99 | 1019.0 |
| 20260508120410 | 44 | 45 | 3.0 | 5.0 | 0.00 | 0.00 | 0.00 | 99 | 1018.9 |
| 20260508115907 | 44 | 25 | 4.0 | 5.0 | 0.00 | 0.00 | 0.00 | 99 | 1018.6 |
| 20260508115405 | 44 | 1 | 0.0 | 4.0 | 0.00 | 0.00 | 0.00 | 99 | 1018.7 |
| 20260508114901 | 44 | 348 | 3.0 | 4.0 | 0.00 | 0.00 | 0.00 | 99 | 1018.7 |
| 20260508114358 | 44 | 358 | 5.0 | 5.0 | 0.00 | 0.00 | 0.00 | 99 | 1018.6 |
| 20260508113855 | 43 | 42 | 5.0 | 5.0 | 0.00 | 0.00 | 0.00 | 99 | 1018.5 |
| 20260508113353 | 43 | 314 | 2.0 | 3.0 | 0.00 | 0.00 | 0.00 | 99 | 1018.5 |
| 20260508112849 | 43 | 309 | 5.0 | 5.0 | 0.00 | 0.00 | 0.00 | 99 | 1018.4 |
| 20260508112347 | 43 | 342 | 2.0 | 3.0 | 0.00 | 0.00 | 0.00 | 99 | 1018.3 |
| 20260508111843 | 44 | 322 | 5.0 | 5.0 | 0.00 | 0.00 | 0.00 | 99 | 1018.2 |
| 20260508111340 | 44 | 332 | 4.0 | 4.0 | 0.00 | 0.00 | 0.00 | 99 | 1018.1 |
| 20260508110837 | 44 | 13 | 3.0 | 5.0 | 0.00 | 0.00 | 0.00 | 99 | 1018.0 |
| 20260508110335 | 44 | 356 | 2.0 | 4.0 | 0.00 | 0.00 | 0.00 | 99 | 1017.9 |
| 20260508105834 | 44 | 338 | 3.0 | 3.0 | 0.00 | 0.00 | 0.00 | 99 | 1017.8 |
| 20260508105331 | 44 | 342 | 0.0 | 4.0 | 0.00 | 0.00 | 0.00 | 99 | 1017.7 |
| 20260508104828 | 44 | 325 | 0.0 | 3.0 | 0.00 | 0.00 | 0.00 | 99 | 1017.7 |
| 20260508104325 | 44 | 340 | 2.0 | 4.0 | 0.00 | 0.00 | 0.00 | 99 | 1017.4 |
| 20260508103822 | 44 | 23 | 3.0 | 3.0 | 0.00 | 0.00 | 0.00 | 99 | 1017.4 |
| 20260508103319 | 44 | 1 | 3.0 | 4.0 | 0.00 | 0.00 | 0.00 | 99 | 1017.3 |
| 20260508102817 | 44 | 0 | 3.0 | 4.0 | 0.00 | 0.00 | 0.00 | 99 | 1017.4 |
| 20260508102315 | 44 | 31 | 2.0 | 3.0 | 0.00 | 0.00 | 0.00 | 99 | 1017.3 |
| 20260508101812 | 44 | 30 | 5.0 | 5.0 | 0.00 | 0.00 | 0.00 | 99 | 1017.1 |
| 20260508101309 | 44 | 0 | 4.0 | 4.0 | 0.00 | 0.00 | 0.00 | 99 | 1017.2 |
| 20260508100807 | 44 | 4 | 2.0 | 3.0 | 0.00 | 0.00 | 0.00 | 99 | 1017.1 |
| 20260508100305 | 44 | 350 | 2.0 | 5.0 | 0.00 | 0.00 | 0.00 | 99 | 1016.9 |
| 20260508095800 | 44 | 333 | 3.0 | 3.0 | 0.00 | 0.00 | 0.00 | 99 | 1017.1 |
| 20260508095258 | 44 | 19 | 3.0 | 3.0 | 0.00 | 0.00 | 0.00 | 99 | 1017.0 |
| 20260508094755 | 44 | 344 | 2.0 | 3.0 | 0.00 | 0.00 | 0.00 | 99 | 1016.7 |
| 20260508094252 | 44 | 329 | 4.0 | 5.0 | 0.00 | 0.00 | 0.00 | 99 | 1016.9 |
| 20260508093749 | 44 | 344 | 3.0 | 3.0 | 0.00 | 0.00 | 0.00 | 99 | 1016.6 |
| 20260508093247 | 44 | 354 | 3.0 | 3.0 | 0.00 | 0.00 | 0.00 | 99 | 1016.6 |
| 20260508092743 | 44 | 334 | 4.0 | 4.0 | 0.00 | 0.00 | 0.00 | 99 | 1016.5 |
| 20260508092241 | 44 | 358 | 2.0 | 3.0 | 0.00 | 0.00 | 0.00 | 99 | 1016.7 |
| 20260508091739 | 44 | 342 | 3.0 | 3.0 | 0.00 | 0.00 | 0.00 | 99 | 1016.5 |
| 20260508091236 | 44 | 339 | 4.0 | 4.0 | 0.00 | 0.00 | 0.00 | 99 | 1016.5 |
| 20260508090734 | 43 | 335 | 3.0 | 3.0 | 0.00 | 0.00 | 0.00 | 99 | 1016.4 |
| 20260508090231 | 43 | 335 | 3.0 | 4.0 | 0.00 | 0.00 | 0.00 | 99 | 1016.5 |
| 20260508085727 | 43 | 20 | 3.0 | 4.0 | 0.00 | 0.00 | 0.00 | 99 | 1016.6 |
| 20260508085224 | 43 | 328 | 3.0 | 3.0 | 0.00 | 0.00 | 0.00 | 99 | 1016.4 |
| 20260508084720 | 44 | 318 | 3.0 | 3.0 | 0.00 | 0.00 | 0.00 | 99 | 1016.5 |
| 20260508084218 | 44 | 347 | 2.0 | 3.0 | 0.00 | 0.00 | 0.00 | 99 | 1016.4 |
| 20260508083715 | 44 | 354 | 3.0 | 5.0 | 0.00 | 0.00 | 0.00 | 99 | 1016.6 |
| 20260508083213 | 44 | 345 | 3.0 | 5.0 | 0.00 | 0.00 | 0.00 | 99 | 1016.4 |
| 20260508082707 | 44 | 336 | 4.0 | 4.0 | 0.00 | 0.00 | 0.00 | 99 | 1016.4 |
| 20260508082205 | 44 | 0 | 4.0 | 4.0 | 0.00 | 0.00 | 0.00 | 99 | 1016.3 |
| 20260508081702 | 44 | 350 | 3.0 | 4.0 | 0.00 | 0.00 | 0.00 | 99 | 1016.5 |
| 20260508081158 | 44 | 334 | 3.0 | 4.0 | 0.00 | 0.00 | 0.00 | 99 | 1016.4 |
| 20260508080656 | 44 | 2 | 3.0 | 5.0 | 0.00 | 0.00 | 0.00 | 99 | 1016.3 |
| 20260508080154 | 45 | 334 | 3.0 | 4.0 | 0.00 | 0.00 | 0.00 | 99 | 1016.2 |
| 20260508075650 | 45 | 347 | 2.0 | 3.0 | 0.00 | 0.00 | 0.00 | 99 | 1016.2 |
| 20260508075147 | 45 | 353 | 3.0 | 5.0 | 0.00 | 0.00 | 0.00 | 99 | 1016.3 |
| 20260508074645 | 45 | 349 | 3.0 | 4.0 | 0.00 | 0.00 | 0.00 | 99 | 1016.2 |
| 20260508074142 | 45 | 3 | 2.0 | 4.0 | 0.00 | 0.00 | 0.00 | 99 | 1016.1 |
| 20260508073639 | 45 | 314 | 5.0 | 5.0 | 0.00 | 0.00 | 0.00 | 99 | 1016.1 |
| 20260508073137 | 45 | 332 | 2.0 | 3.0 | 0.00 | 0.00 | 0.00 | 99 | 1016.1 |
| 20260508072632 | 45 | 13 | 0.0 | 5.0 | 0.00 | 0.00 | 0.00 | 99 | 1015.8 |
| 20260508072130 | 45 | 30 | 2.0 | 3.0 | 0.00 | 0.00 | 0.00 | 99 | 1015.9 |
| 20260508071627 | 46 | 341 | 4.0 | 5.0 | 0.00 | 0.00 | 0.00 | 99 | 1016.2 |
| 20260508071125 | 46 | 353 | 2.0 | 5.0 | 0.00 | 0.00 | 0.00 | 99 | 1016.1 |
| 20260508070622 | 46 | 300 | 0.0 | 7.0 | 0.00 | 0.00 | 0.00 | 99 | 1016.2 |
| 20260508070121 | 46 | 26 | 2.0 | 5.0 | 0.00 | 0.00 | 0.00 | 99 | 1016.4 |
| 20260508065618 | 45 | 30 | 2.0 | 3.0 | 0.00 | 0.00 | 0.00 | 99 | 1016.2 |
| 20260508065115 | 45 | 67 | 2.0 | 3.0 | 0.00 | 0.00 | 0.00 | 99 | 1016.6 |
| 20260508064613 | 45 | 297 | 4.0 | 4.0 | 0.00 | 0.00 | 0.00 | 99 | 1016.3 |
| 20260508064111 | 45 | 328 | 3.0 | 4.0 | 0.00 | 0.00 | 0.00 | 99 | 1016.1 |
| 20260508063608 | 45 | 357 | 4.0 | 5.0 | 0.00 | 0.00 | 0.00 | 99 | 1015.8 |
| 20260508063106 | 45 | 337 | 3.0 | 5.0 | 0.00 | 0.00 | 0.00 | 99 | 1016.1 |
| 20260508062603 | 45 | 348 | 4.0 | 5.0 | 0.00 | 0.00 | 0.00 | 99 | 1015.9 |
| 20260508062100 | 45 | 9 | 3.0 | 5.0 | 0.00 | 0.00 | 0.00 | 99 | 1015.9 |
| 20260508061557 | 45 | 291 | 3.0 | 4.0 | 0.00 | 0.00 | 0.00 | 99 | 1016.2 |
| 20260508061055 | 45 | 291 | 3.0 | 4.0 | 0.00 | 0.00 | 0.00 | 99 | 1016.2 |
| 20260508060551 | 45 | 353 | 0.0 | 3.0 | 0.00 | 0.00 | 0.00 | 99 | 1016.1 |
| 20260508060049 | 45 | 329 | 3.0 | 3.0 | 0.00 | 0.00 | 0.00 | 99 | 1016.2 |
| 20260508055544 | 45 | 12 | 0.0 | 4.0 | 0.00 | 0.00 | 0.00 | 99 | 1016.2 |
| 20260508055041 | 46 | 342 | 3.0 | 4.0 | 0.00 | 0.00 | 0.00 | 99 | 1016.3 |
| 20260508054537 | 46 | 355 | 2.0 | 3.0 | 0.00 | 0.00 | 0.00 | 99 | 1016.3 |
| 20260508054035 | 46 | 329 | 3.0 | 3.0 | 0.00 | 0.00 | 0.00 | 99 | 1016.1 |
| 20260508053531 | 46 | 3 | 3.0 | 5.0 | 0.00 | 0.00 | 0.00 | 99 | 1016.1 |
| 20260508053030 | 46 | 315 | 5.0 | 5.0 | 0.00 | 0.00 | 0.00 | 99 | 1016.1 |
| 20260508052527 | 46 | 6 | 2.0 | 3.0 | 0.00 | 0.00 | 0.00 | 99 | 1016.5 |
| 20260508052023 | 46 | 346 | 2.0 | 4.0 | 0.00 | 0.00 | 0.00 | 99 | 1016.2 |
| 20260508051520 | 46 | 350 | 2.0 | 3.0 | 0.00 | 0.00 | 0.00 | 99 | 1016.3 |
| 20260508051015 | 46 | 12 | 3.0 | 3.0 | 0.00 | 0.00 | 0.00 | 98 | 1016.1 |
| 20260508050512 | 46 | 29 | 2.0 | 3.0 | 0.00 | 0.00 | 0.00 | 98 | 1016.5 |
| 20260508050009 | 46 | 343 | 2.0 | 3.0 | 0.00 | 0.00 | 0.00 | 98 | 1016.3 |
| 20260508045505 | 46 | 330 | 4.0 | 4.0 | 0.00 | 0.00 | 0.00 | 98 | 1016.3 |
| 20260508045003 | 46 | 353 | 2.0 | 4.0 | 0.00 | 0.00 | 0.00 | 98 | 1016.1 |
| 20260508044500 | 46 | 340 | 4.0 | 4.0 | 0.00 | 0.00 | 0.00 | 98 | 1016.2 |
| 20260508043955 | 46 | 322 | 3.0 | 4.0 | 0.00 | 0.00 | 0.00 | 98 | 1016.1 |
| 20260508043453 | 46 | 333 | 3.0 | 4.0 | 0.00 | 0.00 | 0.00 | 98 | 1015.9 |
| 20260508042949 | 46 | 349 | 3.0 | 4.0 | 0.00 | 0.00 | 0.00 | 98 | 1016.2 |
| 20260508042447 | 46 | 333 | 3.0 | 3.0 | 0.00 | 0.00 | 0.00 | 98 | 1016.3 |
| 20260508041944 | 46 | 331 | 2.0 | 4.0 | 0.00 | 0.00 | 0.00 | 98 | 1016.1 |
| 20260508041440 | 47 | 327 | 3.0 | 4.0 | 0.00 | 0.00 | 0.00 | 98 | 1015.8 |
| 20260508040937 | 47 | 337 | 3.0 | 3.0 | 0.00 | 0.00 | 0.00 | 97 | 1015.9 |
| 20260508040434 | 47 | 337 | 2.0 | 3.0 | 0.00 | 0.00 | 0.00 | 97 | 1015.9 |
| 20260508035932 | 47 | 320 | 3.0 | 3.0 | 0.00 | 0.47 | 0.47 | 97 | 1016.1 |
| 20260508035428 | 47 | 310 | 3.0 | 5.0 | 0.00 | 0.47 | 0.47 | 97 | 1016.2 |
| 20260508034925 | 47 | 333 | 4.0 | 5.0 | 0.00 | 0.47 | 0.47 | 97 | 1016.3 |
| 20260508034423 | 47 | 355 | 2.0 | 3.0 | 0.00 | 0.47 | 0.47 | 97 | 1015.9 |
| 20260508033919 | 48 | 0 | 0.0 | 4.0 | 0.00 | 0.47 | 0.47 | 97 | 1016.1 |
| 20260508033418 | 48 | 355 | 3.0 | 4.0 | 0.00 | 0.47 | 0.47 | 97 | 1015.8 |
| 20260508032915 | 48 | 20 | 0.0 | 4.0 | 0.00 | 0.47 | 0.47 | 96 | 1016.2 |
| 20260508032412 | 48 | 325 | 3.0 | 3.0 | 0.00 | 0.47 | 0.47 | 96 | 1015.9 |
| 20260508031908 | 48 | 328 | 3.0 | 3.0 | 0.00 | 0.47 | 0.47 | 96 | 1016.2 |
| 20260508031406 | 48 | 355 | 3.0 | 4.0 | 0.00 | 0.47 | 0.47 | 96 | 1016.1 |
| 20260508030901 | 48 | 341 | 3.0 | 5.0 | 0.00 | 0.47 | 0.47 | 96 | 1016.2 |
| 20260508030359 | 48 | 351 | 2.0 | 5.0 | 0.00 | 0.47 | 0.47 | 95 | 1015.9 |
| 20260508025856 | 48 | 334 | 4.0 | 5.0 | 0.00 | 0.47 | 0.47 | 95 | 1016.3 |
| 20260508025347 | 48 | 344 | 3.0 | 5.0 | 0.00 | 0.47 | 0.47 | 95 | 1015.9 |
| 20260508024844 | 49 | 325 | 3.0 | 4.0 | 0.00 | 0.47 | 0.47 | 95 | 1016.1 |
| 20260508024340 | 49 | 310 | 0.0 | 3.0 | 0.00 | 0.47 | 0.47 | 95 | 1015.9 |
| 20260508023837 | 49 | 321 | 3.0 | 4.0 | 0.00 | 0.47 | 0.47 | 95 | 1015.9 |
| 20260508023334 | 49 | 337 | 2.0 | 4.0 | 0.00 | 0.47 | 0.47 | 94 | 1015.8 |
| 20260508022831 | 49 | 333 | 2.0 | 3.0 | 0.00 | 0.47 | 0.47 | 93 | 1015.8 |
| 20260508022327 | 49 | 341 | 0.0 | 5.0 | 0.00 | 0.47 | 0.47 | 93 | 1015.9 |
| 20260508021824 | 49 | 326 | 3.0 | 3.0 | 0.00 | 0.47 | 0.47 | 93 | 1015.8 |
| 20260508021319 | 49 | 301 | 3.0 | 3.0 | 0.00 | 0.47 | 0.47 | 93 | 1015.9 |
| 20260508020816 | 49 | 354 | 3.0 | 4.0 | 0.00 | 0.47 | 0.47 | 93 | 1015.8 |
| 20260508020314 | 50 | 349 | 0.0 | 4.0 | 0.00 | 0.47 | 0.47 | 92 | 1015.5 |
| 20260508015810 | 50 | 344 | 2.0 | 3.0 | 0.00 | 0.47 | 0.47 | 91 | 1015.7 |
| 20260508015308 | 50 | 337 | 3.0 | 4.0 | 0.00 | 0.47 | 0.47 | 91 | 1015.4 |
| 20260508014804 | 50 | 335 | 2.0 | 5.0 | 0.00 | 0.47 | 0.47 | 90 | 1015.5 |
| 20260508014301 | 50 | 326 | 2.0 | 3.0 | 0.00 | 0.47 | 0.47 | 89 | 1015.3 |
| 20260508013757 | 50 | 317 | 0.0 | 2.0 | 0.00 | 0.47 | 0.47 | 89 | 1015.2 |
| 20260508013253 | 51 | 25 | 0.0 | 3.0 | 0.00 | 0.47 | 0.47 | 88 | 1015.2 |
| 20260508012751 | 51 | 6 | 0.0 | 3.0 | 0.00 | 0.47 | 0.47 | 88 | 1015.3 |
| 20260508012248 | 51 | 322 | 2.0 | 2.0 | 0.00 | 0.47 | 0.47 | 87 | 1015.2 |
| 20260508011746 | 52 | 319 | 3.0 | 4.0 | 0.00 | 0.47 | 0.47 | 86 | 1015.0 |
| 20260508011243 | 52 | 2 | 0.0 | 2.0 | 0.00 | 0.47 | 0.47 | 84 | 1015.0 |
| 20260508010740 | 52 | 21 | 0.0 | 3.0 | 0.00 | 0.47 | 0.47 | 84 | 1015.0 |
| 20260508010238 | 53 | 19 | 0.0 | 3.0 | 0.00 | 0.47 | 0.47 | 83 | 1015.1 |
| 20260508005735 | 53 | 330 | 3.0 | 4.0 | 0.00 | 0.47 | 0.47 | 83 | 1015.2 |
| 20260508005232 | 53 | 332 | 4.0 | 5.0 | 0.00 | 0.47 | 0.47 | 81 | 1014.8 |
| 20260508004727 | 54 | 316 | 5.0 | 5.0 | 0.00 | 0.47 | 0.47 | 78 | 1014.6 |
| 20260508004224 | 54 | 52 | 0.0 | 0.0 | 0.00 | 0.47 | 0.47 | 77 | 1014.9 |
| 20260508003720 | 55 | 25 | 0.0 | 3.0 | 0.00 | 0.47 | 0.47 | 76 | 1014.7 |
| 20260508003218 | 55 | 115 | 2.0 | 3.0 | 0.00 | 0.47 | 0.47 | 78 | 1014.8 |
| 20260508002714 | 55 | 224 | 2.0 | 4.0 | 0.00 | 0.47 | 0.47 | 76 | 1014.7 |
| 20260508002212 | 55 | 359 | 4.0 | 9.0 | 0.00 | 0.47 | 0.47 | 70 | 1014.5 |
| 20260508001707 | 55 | 312 | 3.0 | 5.0 | 0.00 | 0.47 | 0.47 | 73 | 1014.2 |
| 20260508001203 | 56 | 353 | 0.0 | 3.0 | 0.00 | 0.47 | 0.47 | 76 | 1014.4 |
| 20260508000659 | 56 | 315 | 0.0 | 3.0 | 0.00 | 0.47 | 0.47 | 70 | 1014.4 |
| 20260508000157 | 57 | 183 | 0.0 | 2.0 | 0.00 | 0.47 | 0.47 | 73 | 1014.2 |
| 20260507235653 | 57 | 22 | 3.0 | 4.0 | 0.00 | 0.47 | 0.47 | 71 | 1014.2 |
| 20260507235150 | 57 | 110 | 3.0 | 3.0 | 0.00 | 0.47 | 0.47 | 67 | 1014.2 |
| 20260507234647 | 57 | 35 | 3.0 | 5.0 | 0.00 | 0.47 | 0.47 | 68 | 1014.1 |
| 20260507234143 | 57 | 21 | 3.0 | 5.0 | 0.00 | 0.47 | 0.47 | 73 | 1013.9 |
| 20260507233641 | 58 | 175 | 2.0 | 5.0 | 0.00 | 0.47 | 0.47 | 69 | 1013.7 |
| 20260507233139 | 58 | 341 | 3.0 | 6.0 | 0.00 | 0.47 | 0.47 | 65 | 1013.8 |
| 20260507232635 | 58 | 40 | 0.0 | 5.0 | 0.00 | 0.47 | 0.47 | 64 | 1013.8 |
| 20260507232132 | 58 | 37 | 4.0 | 8.0 | 0.00 | 0.47 | 0.47 | 65 | 1013.7 |
| 20260507231629 | 58 | 23 | 3.0 | 9.0 | 0.00 | 0.47 | 0.47 | 65 | 1013.8 |
| 20260507231126 | 58 | 39 | 2.0 | 6.0 | 0.00 | 0.47 | 0.47 | 67 | 1013.9 |
| 20260507230622 | 58 | 88 | 4.0 | 5.0 | 0.00 | 0.47 | 0.47 | 68 | 1013.9 |
| 20260507230120 | 59 | 42 | 3.0 | 4.0 | 0.00 | 0.47 | 0.47 | 70 | 1013.9 |
| 20260507225614 | 59 | 42 | 7.0 | 9.0 | 0.00 | 0.47 | 0.47 | 68 | 1013.8 |
| 20260507225111 | 59 | 70 | 0.0 | 4.0 | 0.00 | 0.47 | 0.47 | 66 | 1013.8 |
| 20260507224607 | 59 | 52 | 5.0 | 10.0 | 0.00 | 0.47 | 0.47 | 69 | 1014.0 |
| 20260507224104 | 59 | 22 | 4.0 | 7.0 | 0.00 | 0.47 | 0.47 | 64 | 1013.8 |
| 20260507223559 | 59 | 145 | 5.0 | 9.0 | 0.00 | 0.47 | 0.47 | 65 | 1013.8 |
| 20260507223056 | 59 | 75 | 11.0 | 11.0 | 0.00 | 0.47 | 0.47 | 67 | 1014.0 |
| 20260507222554 | 58 | 22 | 3.0 | 11.0 | 0.00 | 0.47 | 0.47 | 66 | 1013.9 |
| 20260507222050 | 59 | 109 | 0.0 | 5.0 | 0.00 | 0.47 | 0.47 | 70 | 1013.9 |
| 20260507221547 | 59 | 50 | 2.0 | 10.0 | 0.00 | 0.47 | 0.47 | 71 | 1014.0 |
| 20260507221044 | 59 | 88 | 8.0 | 16.0 | 0.00 | 0.47 | 0.47 | 65 | 1013.6 |
| 20260507220541 | 59 | 31 | 7.0 | 7.0 | 0.00 | 0.47 | 0.47 | 69 | 1013.7 |
| 20260507220038 | 59 | 75 | 10.0 | 10.0 | 0.00 | 0.47 | 0.47 | 67 | 1013.6 |
| 20260507215534 | 60 | 81 | 3.0 | 10.0 | 0.00 | 0.47 | 0.47 | 67 | 1013.5 |
| 20260507215032 | 60 | 316 | 5.0 | 20.0 | 0.00 | 0.47 | 0.47 | 66 | 1013.4 |
| 20260507214529 | 60 | 109 | 7.0 | 14.0 | 0.00 | 0.47 | 0.47 | 68 | 1013.5 |
| 20260507214025 | 59 | 63 | 9.0 | 14.0 | 0.00 | 0.47 | 0.47 | 68 | 1013.2 |
| 20260507213521 | 59 | 86 | 5.0 | 10.0 | 0.00 | 0.47 | 0.47 | 68 | 1013.2 |
| 20260507213019 | 59 | 102 | 0.0 | 11.0 | 0.00 | 0.47 | 0.47 | 69 | 1013.1 |
| 20260507212514 | 60 | 65 | 9.0 | 11.0 | 0.00 | 0.47 | 0.47 | 68 | 1013.0 |
| 20260507212011 | 61 | 45 | 6.0 | 11.0 | 0.00 | 0.47 | 0.47 | 69 | 1012.6 |
| 20260507211508 | 61 | 66 | 5.0 | 8.0 | 0.00 | 0.47 | 0.47 | 71 | 1012.6 |
| 20260507211004 | 61 | 271 | 5.0 | 11.0 | 0.00 | 0.47 | 0.47 | 69 | 1012.8 |
| 20260507210501 | 62 | 221 | 3.0 | 11.0 | 0.00 | 0.47 | 0.47 | 72 | 1012.5 |
| 20260507205958 | 62 | 92 | 13.0 | 15.0 | 0.00 | 0.47 | 0.47 | 70 | 1012.5 |
| 20260507205455 | 63 | 255 | 7.0 | 9.0 | 0.00 | 0.47 | 0.47 | 69 | 1012.3 |